Location: Kavul?ru
(16.6288°N, 80.5832°E)
Time: 13:14:20
(UTC+00:00)

CZ-2C R/B - Pass Details

Date: 15 May 2026
Orbit: 662 x 774 km, 98.5° (Epoch: 11 June)

Event Time Altitude Azimuth Distance (km) Brightness Sun altitude
Rises 23:03:22 0° 2° (N) 2,987 6.0 -14.8°
Reaches altitude 10° 23:05:39 10° 355° (N) 2,075 5.0 -14.3°
Maximum altitude 23:09:56 44° 284° (WNW) 922 2.6 -13.4°
Enters shadow 23:13:36 14° 216° (SW) 1,847 4.0 -12.6°
